Location: Jackson Park
(37.2862°N, 79.9123°W)
Time: 22:59:41
(UTC+00:00)

Explorer 11/Cluster Stage 4 - Pass Details

Date: 14 May 2026
Orbit: 463 x 1173 km, 28.8° (Epoch: 5 June)

Event Time Altitude Azimuth Distance (km) Brightness Sun altitude
Rises 05:03:06 0° 247° (WSW) 3,686 - -34.0°
Reaches altitude 10° 05:06:13 10° 239° (WSW) 2,618 - -34.0°
Maximum altitude 05:11:44 33° 177° (S) 1,323 - -34.1°
Drops below altitude 10° 05:16:20 10° 114° (ESE) 2,168 - -34.1°
Sets 05:18:42 0° 104° (ESE) 2,973 - -34.1°
